Natchitoches, LA

11:50 PM CDT on September 24, 2016 (GMT -0500)
Natchitoches Regional

Weather History for KIER - October, 2013

Change the Weather History Date:

Monday, October 28, 2013

  Actual Average Record
Temperature  
Mean Temperature 68 °F -  
Max Temperature 78 °F 74 °F 90 °F (1939)
Min Temperature 58 °F 49 °F 30 °F (1957)
Cooling Degree Days 2    
Growing Degree Days 18 (Base 50)    
Moisture  
Dew Point 63 °F    
Average Humidity 90    
Maximum Humidity 100    
Minimum Humidity 63    
Precipitation  
Precipitation 0.00 in - - ()
Sea Level Pressure  
Sea Level Pressure 30.12 in    
Wind  
Wind Speed 0 mph (ESE)    
Max Wind Speed 8 mph    
Max Gust Speed -    
Visibility 6 miles    
Events Fog    
Averages and records for this station are not official NWS values.
T = Trace of Precipitation, MM = Missing Value Source: NWS Daily Summary

Daily Weather History Graph

Daily Weather History Graph

Search for Another Location

Airport or City:

Trip Planner

Search our weather history database for the weather conditions in past years. The results will help you decide how hot, cold, wet, or windy it might be!

Date:

Astronomy

Oct. 28, 2013 Rise Set
Actual Time 7:25 AM CDT 6:26 PM CDT
Civil Twilight 7:00 AM CDT 6:51 PM CDT
Nautical Twilight 6:31 AM CDT 7:19 PM CDT
Astronomical Twilight 6:03 AM CDT 7:48 PM CDT
Moon 1:40 AM CDT (10/28) 2:49 PM CDT (10/28)
Length of Visible Light 11h 50m
Length of Day
11h 00m
Waning Crescent, 34% of the Moon is Illuminated
Oct 28
Waning Crescent
Nov 3
New
Nov 9
First Quarter
Nov 17
Full
Nov 25
Last Quarter

Hourly Weather History & Observations

Time (CDT) Temp. Dew Point Humidity Pressure Visibility Wind Dir Wind Speed Gust Speed Precip Events Conditions
12:15 AM 59.5 °F 59.4 °F 99% 30.06 in 5.0 mi Calm Calm - N/A   Clear
12:35 AM 59.2 °F 59.2 °F 100% 30.05 in 0.8 mi Calm Calm - N/A   Mist
12:55 AM 58.1 °F 58.1 °F 100% 30.05 in 0.5 mi Calm Calm - N/A Fog Fog
1:15 AM 58.8 °F 58.8 °F 100% 30.04 in 4.0 mi Calm Calm - N/A   Scattered Clouds
1:35 AM 58.5 °F 58.5 °F 100% 30.04 in 2.0 mi Calm Calm - N/A   Overcast
1:55 AM 59.4 °F 59.4 °F 100% 30.04 in 7.0 mi Calm Calm - N/A   Overcast
2:15 AM 60.4 °F 60.4 °F 100% 30.05 in 1.2 mi Calm Calm - N/A   Overcast
2:35 AM 61.2 °F 61.2 °F 100% 30.05 in 0.2 mi Calm Calm - N/A Fog Fog
2:55 AM 61.9 °F 61.9 °F 100% 30.05 in 0.2 mi Calm Calm - N/A Fog Fog
3:15 AM 61.9 °F 61.9 °F 100% 30.05 in 0.2 mi Calm Calm - N/A Fog Fog
3:35 AM 62.1 °F 62.1 °F 100% 30.05 in 0.5 mi Calm Calm - N/A Fog Fog
3:55 AM 62.1 °F 62.1 °F 100% 30.05 in 0.8 mi Calm Calm - N/A   Overcast
4:15 AM 62.1 °F 62.1 °F 100% 30.06 in 0.5 mi Calm Calm - N/A Fog Fog
4:35 AM 62.2 °F 62.2 °F 100% 30.06 in 0.5 mi Calm Calm - N/A Fog Fog
4:55 AM 62.6 °F 62.6 °F 100% 30.06 in 0.5 mi Calm Calm - N/A Fog Fog
5:15 AM 62.6 °F 62.6 °F 100% 30.07 in 0.5 mi Calm Calm - N/A Fog Fog
5:35 AM 62.8 °F 62.8 °F 100% 30.07 in 0.5 mi Calm Calm - N/A Fog Fog
5:55 AM 62.8 °F 62.8 °F 100% 30.09 in 0.5 mi Calm Calm - N/A Fog Fog
6:15 AM 62.8 °F 62.8 °F 100% 30.09 in 0.5 mi Calm Calm - N/A Fog Fog
6:35 AM 62.6 °F 62.6 °F 100% 30.09 in 0.5 mi Calm Calm - N/A Fog Fog
6:55 AM 62.8 °F 62.8 °F 100% 30.10 in 0.5 mi Calm Calm - N/A Fog Fog
7:15 AM 62.6 °F 62.6 °F 100% 30.11 in 0.5 mi Calm Calm - N/A Fog Fog
7:35 AM 62.4 °F 62.4 °F 100% 30.11 in 0.2 mi Calm Calm - N/A Fog Fog
7:55 AM 62.6 °F 62.6 °F 100% 30.13 in 0.2 mi Calm Calm - N/A Fog Fog
8:15 AM 62.8 °F 62.8 °F 100% 30.13 in 0.5 mi Calm Calm - N/A Fog Fog
8:35 AM 63.3 °F 63.3 °F 100% 30.14 in 0.2 mi Calm Calm - N/A Fog Fog
8:55 AM 63.5 °F 63.5 °F 100% 30.15 in 0.5 mi Calm Calm - N/A Fog Fog
9:15 AM 63.9 °F 63.9 °F 100% 30.16 in 0.8 mi Calm Calm - N/A   Overcast
9:35 AM 63.5 °F 63.5 °F 100% 30.17 in 0.8 mi Calm Calm - N/A   Overcast
9:55 AM 63.9 °F 63.9 °F 100% 30.18 in 1.0 mi Calm Calm - N/A   Overcast
10:15 AM 64.4 °F 64.4 °F 100% 30.18 in 2.5 mi Calm Calm - N/A   Overcast
10:35 AM 64.6 °F 64.4 °F 99% 30.18 in 2.5 mi Calm Calm - N/A   Overcast
10:55 AM 65.5 °F 64.6 °F 97% 30.18 in 4.0 mi Calm Calm - N/A   Overcast
11:15 AM 66.2 °F 64.4 °F 94% 30.18 in 3.0 mi Calm Calm - N/A   Overcast
11:35 AM 67.6 °F 64.9 °F 91% 30.18 in 5.0 mi Calm Calm - N/A   Overcast
11:55 AM 68.7 °F 65.1 °F 88% 30.18 in 5.0 mi Calm Calm - N/A   Overcast
12:15 PM 72.0 °F 65.1 °F 79% 30.18 in 10.0 mi Calm Calm - N/A   Overcast
12:35 PM 71.4 °F 65.3 °F 81% 30.17 in 10.0 mi SE 3.5 mph - N/A   Mostly Cloudy
12:55 PM 74.7 °F 65.3 °F 73% 30.16 in 10.0 mi SSE 4.6 mph - N/A   Scattered Clouds
1:15 PM 75.2 °F 65.3 °F 71% 30.15 in 10.0 mi Calm Calm - N/A   Scattered Clouds
1:35 PM 76.6 °F 64.4 °F 66% 30.14 in 10.0 mi Calm Calm - N/A   Scattered Clouds
1:55 PM 77.7 °F 64.4 °F 63% 30.13 in 10.0 mi Calm Calm - N/A   Scattered Clouds
2:15 PM 76.1 °F 64.0 °F 66% 30.12 in 10.0 mi Calm Calm - N/A   Mostly Cloudy
2:35 PM 75.7 °F 63.5 °F 66% 30.12 in 10.0 mi Calm Calm - N/A   Overcast
2:55 PM 75.6 °F 63.7 °F 66% 30.12 in 10.0 mi Calm Calm - N/A   Overcast
3:15 PM 75.7 °F 63.9 °F 66% 30.12 in 10.0 mi Calm Calm - N/A   Overcast
3:35 PM 75.9 °F 63.7 °F 66% 30.12 in 10.0 mi Calm Calm - N/A   Overcast
3:55 PM 75.9 °F 63.9 °F 66% 30.12 in 10.0 mi Calm Calm - N/A   Overcast
4:15 PM 75.6 °F 63.9 °F 67% 30.12 in 10.0 mi Calm Calm - N/A   Overcast
4:35 PM 75.9 °F 64.4 °F 67% 30.11 in 10.0 mi East 4.6 mph - N/A   Overcast
4:55 PM 76.3 °F 64.4 °F 67% 30.11 in 10.0 mi East 6.9 mph - N/A   Overcast
5:15 PM 76.3 °F 64.2 °F 66% 30.11 in 10.0 mi East 8.1 mph - N/A   Scattered Clouds
5:35 PM 75.2 °F 64.0 °F 68% 30.11 in 10.0 mi East 5.8 mph - N/A   Clear
5:55 PM 73.8 °F 64.0 °F 72% 30.11 in 10.0 mi East 3.5 mph - N/A   Clear
6:15 PM 72.7 °F 64.4 °F 75% 30.11 in 10.0 mi East 3.5 mph - N/A   Clear
6:35 PM 71.2 °F 64.2 °F 78% 30.12 in 10.0 mi Calm Calm - N/A   Clear
6:55 PM 70.7 °F 64.2 °F 80% 30.12 in 10.0 mi Calm Calm - N/A   Clear
7:15 PM 69.4 °F 63.9 °F 82% 30.13 in 10.0 mi Calm Calm - N/A   Clear
7:35 PM 65.7 °F 64.0 °F 94% 30.13 in 10.0 mi Calm Calm - N/A   Clear
7:55 PM 67.3 °F 63.9 °F 89% 30.14 in 10.0 mi Calm Calm - N/A   Clear
8:15 PM 64.8 °F 63.5 °F 96% 30.14 in 10.0 mi Calm Calm - N/A   Clear
8:35 PM 64.4 °F 63.5 °F 97% 30.14 in 10.0 mi Calm Calm - N/A   Clear
8:55 PM 64.4 °F 63.1 °F 96% 30.15 in 10.0 mi Calm Calm - N/A   Clear
9:15 PM 63.9 °F 63.1 °F 97% 30.15 in 10.0 mi Calm Calm - N/A   Clear
9:35 PM 63.3 °F 62.8 °F 98% 30.15 in 10.0 mi Calm Calm - N/A   Clear
9:55 PM 63.0 °F 62.6 °F 99% 30.15 in 7.0 mi Calm Calm - N/A   Clear
10:15 PM 62.8 °F 62.6 °F 99% 30.16 in 7.0 mi Calm Calm - N/A   Clear
10:35 PM 62.4 °F 62.2 °F 99% 30.15 in 7.0 mi Calm Calm - N/A   Clear
10:55 PM 63.0 °F 62.1 °F 97% 30.15 in 10.0 mi Calm Calm - N/A   Clear
11:15 PM 62.6 °F 61.7 °F 97% 30.15 in 7.0 mi Calm Calm - N/A   Clear
11:35 PM 61.7 °F 61.7 °F 100% 30.16 in 7.0 mi Calm Calm - N/A   Clear
11:55 PM 61.3 °F 61.0 °F 99% 30.15 in 7.0 mi Calm Calm - N/A   Clear